Theta_e
330 333 335 336 335 335 335 336 337 337 337 337 337 336 336 337 335 334 333 332 330 329 329 329 329 329 329 328 327 328 321 317
326 328 329 328 329 333 333 333 333 334 334 334 333 334 334 335 334 334 333 331 330 329 329 328 328 327 327 326 326 327 318 316
325 326 326 327 328 331 333 333 333 332 332 332 329 329 330 332 330 331 332 331 330 330 329 328 326 326 326 325 327 319 317 315
324 324 325 326 330 329 328 330 329 328 328 328 327 326 326 330 329 330 331 330 330 330 329 329 326 319 317 321 318 318 315 311
324 326 326 324 325 325 325 327 327 327 328 327 325 326 326 325 322 324 322 326 322 323 322 321 320 318 317 316 316 315 311 310
324 323 325 323 322 324 325 325 327 327 327 324 321 321 317 318 321 319 318 317 319 318 318 317 316 317 316 316 316 313 310 310
324 324 323 322 321 320 321 322 325 326 323 322 321 318 316 316 316 315 314 314 313 312 312 312 312 313 314 313 313 313 311 310
326 325 325 326 322 321 321 323 321 322 321 320 321 319 317 317 314 315 314 314 314 313 312 312 313 313 314 314 314 312 311 309
328 330 330 328 327 323 319 321 320 320 319 319 320 318 316 314 313 313 313 314 313 312 311 312 311 313 311 312 312 312 312 310
330 329 327 324 326 324 320 316 314 315 316 316 317 317 315 313 311 311 312 311 310 309 309 308 307 307 307 309 309 310 310 310
325 325 323 321 324 321 317 315 313 313 313 314 314 316 315 311 309 308 308 307 306 307 305 305 304 304 306 306 306 307 308 311
320 321 321 323 318 315 312 311 310 311 311 310 311 310 310 308 308 307 306 305 305 303 302 302 302 302 305 305 304 306 307 307
313 313 311 310 309 309 308 307 308 309 309 310 309 309 309 306 305 304 304 303 302 302 301 300 300 301 300 301 301 303 303 302
309 309 308 308 308 307 307 306 308 307 307 307 306 305 305 303 301 301 301 302 301 300 299 299 299 298 296 296 295 298 298 299
308 308 308 307 308 307 307 306 305 304 304 303 303 303 302 302 301 300 299 300 299 299 298 297 295 295 297 296 291 289 291 295
307 307 308 308 308 307 305 303 302 302 302 301 301 301 301 301 300 299 298 299 299 298 298 295 297 295 297 298 297 295 289 286
306 308 308 308 308 306 305 303 303 302 301 299 299 299 300 299 300 299 299 299 298 297 296 296 295 293 293 294 289 289 288 288
305 306 306 307 306 305 303 302 301 299 298 296 297 297 297 297 299 298 298 297 297 296 295 294 293 292 292 290 289 287 286 288
306 306 305 306 305 303 302 301 299 299 298 295 295 294 294 295 297 296 297 296 295 295 294 293 292 292 292 291 290 289 291 290
304 304 304 304 303 301 300 301 299 297 296 295 294 293 294 294 296 295 295 295 294 293 293 293 293 291 290 290 291 294 293 293
Wind_Speed
6 6 9 12 11 11 11 10 11 11 10 10 10 9 9 9 7 6 5 3 2 1 2 4 5 7 8 10 9 10 5 5
7 6 6 6 7 11 10 10 10 10 10 10 10 9 7 7 7 6 6 4 4 4 4 5 5 6 9 10 10 8 6 5
6 6 6 5 4 6 8 8 8 8 7 7 5 4 5 6 5 7 6 5 6 7 7 6 7 7 9 10 9 2 3 4
8 8 7 7 6 5 6 4 4 4 4 5 4 5 4 4 5 9 7 7 9 9 8 8 7 4 3 7 3 3 3 3
10 9 7 7 5 4 1 1 1 2 4 4 4 3 4 3 3 3 3 6 4 4 4 3 5 4 4 4 5 4 3 3
11 10 8 7 4 4 4 4 3 4 5 5 4 3 3 3 3 2 3 2 4 4 3 5 5 6 6 6 5 4 3 3
11 10 7 7 7 5 4 5 5 4 5 4 4 3 3 2 0 1 2 2 1 2 3 4 5 6 6 6 6 6 6 4
6 6 7 5 4 4 5 4 4 4 3 5 6 4 3 2 1 1 3 3 3 3 3 4 5 5 7 7 7 6 6 6
12 10 6 6 3 4 2 4 4 4 4 5 6 4 4 4 2 1 2 3 5 5 5 5 5 6 6 6 5 7 5 6
11 9 7 4 0 4 2 1 2 2 2 0 0 1 2 3 2 3 4 4 3 4 4 4 4 4 5 6 5 5 7 7
7 4 4 2 5 4 2 4 4 3 4 4 4 5 6 5 4 3 3 3 4 3 2 2 3 5 7 6 6 5 6 7
11 7 7 3 5 2 3 4 5 6 6 6 7 5 7 6 5 6 5 4 4 4 3 3 2 4 7 8 5 5 5 4
9 7 3 4 4 3 3 5 4 5 5 7 7 7 7 7 5 6 6 5 4 3 2 4 4 6 3 6 4 6 6 6
7 6 6 5 3 2 3 3 3 4 4 7 7 8 7 6 6 6 6 4 6 4 3 2 2 4 2 3 5 9 5 10
7 7 8 6 5 3 3 3 3 3 4 3 3 5 5 5 4 3 4 3 3 2 2 2 1 2 3 2 4 3 7 3
7 6 6 4 5 4 4 3 2 1 2 2 2 4 4 4 3 4 4 3 4 2 2 1 0 1 1 3 2 2 4 7
5 6 5 5 6 5 4 3 2 3 3 4 5 5 6 6 6 6 6 4 4 4 3 3 2 2 2 2 1 1 1 2
4 7 5 7 7 7 7 7 6 4 3 3 2 2 3 5 6 4 3 3 3 3 3 4 4 3 1 2 2 2 2 3
3 7 6 6 7 7 7 7 6 5 2 1 3 3 3 4 4 4 2 2 3 3 2 3 4 3 5 4 2 3 3 4
5 7 6 6 6 6 5 6 3 2 2 2 2 1 1 1 2 2 1 1 2 2 2 2 4 4 5 4 4 5 3 5
Wind_Direction
131 136 140 135 129 124 127 139 142 142 140 137 135 139 145 145 144 143 161 166 122 264 294 320 333 328 323 319 328 338 353 314
155 159 148 137 136 143 156 164 152 154 154 155 147 155 161 168 163 176 195 195 218 249 270 287 306 310 307 308 313 332 335 317
163 151 151 135 139 175 168 177 159 164 167 152 162 185 184 187 196 209 211 214 240 256 266 279 290 294 294 298 311 312 326 326
168 166 166 160 172 170 167 191 180 177 187 181 190 212 201 197 225 232 234 229 247 259 272 285 294 280 290 302 284 286 293 291
183 165 180 168 162 166 175 151 253 225 211 214 205 212 212 220 235 252 259 260 269 292 294 277 279 275 271 257 268 271 261 254
173 171 175 174 154 167 187 174 198 222 219 184 161 154 150 182 200 247 265 300 291 280 283 287 281 270 261 268 258 241 241 256
177 149 156 133 139 152 160 192 198 200 195 170 132 144 164 144 260 327 314 323 338 326 305 306 317 316 301 286 277 265 248 237
134 119 86 65 90 183 157 158 164 183 188 189 158 157 160 143 82 350 338 341 339 319 311 319 313 316 306 297 287 278 266 256
155 105 153 179 171 115 24 172 162 174 195 197 179 164 163 149 155 13 335 347 351 352 349 350 350 341 318 316 305 298 290 274
122 137 150 228 111 60 348 191 169 161 200 83 96 146 121 82 52 18 357 6 23 20 8 357 348 329 319 307 298 299 300 299
102 102 179 190 35 33 15 15 23 64 49 67 65 64 47 40 23 5 1 359 11 15 344 40 328 333 327 320 306 297 290 303
69 52 36 29 41 42 44 50 39 43 42 38 47 40 34 29 15 0 357 359 357 5 353 336 319 317 311 301 293 288 286 294
80 82 51 77 63 36 17 44 36 52 53 47 43 43 41 41 29 20 11 15 351 330 324 345 350 349 342 325 306 288 349 356
108 118 96 82 99 100 95 129 102 99 61 51 50 50 44 45 34 18 11 355 351 349 11 351 12 24 356 287 333 320 13 336
109 94 90 89 104 102 80 70 50 52 60 82 59 70 58 57 47 22 346 335 323 337 71 87 179 348 54 71 341 316 321 312
76 100 110 110 100 96 106 126 129 147 123 81 48 50 55 43 32 11 347 346 15 95 51 18 52 337 269 71 110 289 318 312
110 93 85 93 87 102 115 98 77 78 58 48 29 18 9 24 23 35 31 25 26 31 9 51 40 3 323 307 31 248 244 315
90 95 67 61 73 71 87 94 97 82 57 32 9 342 346 17 45 36 58 56 49 31 30 29 20 335 299 262 170 221 240 286
92 76 89 82 85 88 91 100 102 97 92 32 7 348 355 356 20 24 34 61 61 64 45 356 332 341 316 297 261 236 231 234
85 95 106 96 98 90 87 118 136 141 72 62 77 82 126 4 77 109 348 1 320 314 308 314 287 291 301 290 272 273 255 252